Date,TemperatureHighF,TemperatureAvgF,TemperatureLowF,DewpointHighF,DewpointAvgF,DewpointLowF,HumidityHigh,HumidityAvg,HumidityLow,PressureMaxIn,PressureMinIn,WindSpeedMaxMPH,WindSpeedAvgMPH,GustSpeedMaxMPH,PrecipitationSumIn
2013-1-1,33,19,6,28,14,2,86,80,66,30.03,29.83,5,2,9,0.00
2013-1-2,25,21,6,19,16,2,87,80,70,30.22,30.02,3,1,14,0.00
2013-1-3,28,26,14,25,21,10,89,83,75,30.22,29.97,3,1,14,0.00
2013-1-4,32,31,26,25,24,22,83,75,71,30.00,29.87,6,4,21,0.00
2013-1-5,35,32,28,28,25,22,81,76,70,30.28,30.05,2,0,8,0.04
2013-1-6,37,34,30,32,31,23,91,86,76,30.06,29.87,2,1,11,0.15
2013-1-7,34,28,23,31,21,18,89,78,70,30.39,30.07,3,0,7,0.01
2013-1-8,38,29,24,28,23,21,89,81,65,30.32,30.18,2,0,6,0.06
2013-1-9,47,41,34,37,32,27,76,70,63,30.31,29.94,7,4,16,0.02
2013-1-10,42,36,30,29,28,25,88,73,60,30.57,30.31,4,1,10,0.00
2013-1-11,44,42,32,39,36,28,90,82,65,30.41,29.88,5,2,10,0.15
2013-1-12,56,52,42,50,48,39,89,84,79,29.98,29.92,3,2,9,0.00
2013-1-13,69,59,52,59,53,48,88,81,69,29.94,29.72,6,2,14,0.00
2013-1-14,34,31,28,26,23,20,75,72,67,30.36,30.22,4,1,14,0.01
2013-1-15,34,30,28,23,21,19,78,69,59,30.39,30.18,2,0,8,0.00
2013-1-16,39,34,30,30,27,24,82,74,65,29.94,29.76,3,1,9,0.00
2013-1-17,35,21,16,27,14,12,84,74,67,30.18,29.82,4,1,9,0.00
2013-1-18,30,23,16,18,12,8,85,63,56,30.44,30.02,4,1,8,0.04
2013-1-19,48,44,30,31,28,18,61,53,45,30.03,29.56,5,3,12,0.00
2013-1-20,48,24,17,28,14,8,83,64,47,30.06,29.52,10,4,30,0.02
2013-1-21,21,18,12,14,10,1,79,69,59,30.05,29.86,3,1,30,0.00
2013-1-22,14,10,7,1,-2,-5,73,58,49,30.19,29.90,6,3,17,0.00
2013-1-23,14,11,6,6,3,-4,83,70,56,30.24,30.09,2,0,13,0.00
2013-1-24,14,10,7,8,3,0,83,73,67,30.53,30.33,6,2,14,0.00
2013-1-25,16,12,6,10,7,2,84,77,66,30.37,30.09,1,0,5,0.00
2013-1-26,24,12,1,14,6,-3,86,79,59,30.40,30.10,1,0,4,0.01
2013-1-27,28,23,14,18,15,11,90,71,59,30.57,30.36,2,0,2,0.03
2013-1-28,42,36,23,41,35,16,96,93,76,30.35,29.84,3,1,6,0.24
2013-1-29,53,44,33,52,44,32,98,97,96,30.03,29.72,4,1,7,0.33
2013-1-30,62,58,53,56,52,50,96,81,75,29.72,29.00,8,3,15,0.07
2013-1-31,53,28,22,51,18,11,93,66,51,29.67,28.98,10,5,23,0.11
2013-2-1,21,18,16,15,12,7,87,75,64,30.18,29.80,5,2,12,0.00
2013-2-2,19,17,12,14,11,7,85,80,66,30.19,29.97,3,0,13,0.00
2013-2-3,25,21,12,16,13,8,86,71,58,29.98,29.79,3,1,13,0.00
2013-2-4,22,19,17,12,10,8,77,67,55,29.95,29.85,5,1,12,0.00
2013-2-5,26,24,16,18,15,12,81,69,64,29.96,29.83,2,0,12,0.01
2013-2-6,25,20,12,17,11,6,80,68,56,30.38,30.13,5,2,16,0.00
2013-2-7,29,27,21,22,17,13,83,67,61,30.42,30.08,2,0,5,0.00
2013-2-8,34,27,18,30,24,15,93,91,83,30.05,29.75,2,0,8,0.00
2013-2-9,20,14,5,16,11,1,86,85,83,30.42,30.36,0,0,0,0.00
2013-2-10,32,26,4,28,22,1,90,84,78,30.41,29.99,1,0,4,0.01
2013-2-11,50,39,33,41,32,26,85,74,70,29.71,29.53,6,4,22,0.25
2013-2-12,35,32,30,27,25,23,81,76,70,29.95,29.86,5,2,17,0.02
2013-2-13,38,30,21,25,22,17,88,73,58,29.90,29.70,4,0,17,0.01
2013-2-14,40,36,21,33,29,18,92,78,59,29.91,29.76,4,1,6,0.07
2013-2-15,37,31,22,33,21,15,92,66,57,30.04,29.76,5,2,17,0.01
2013-2-16,29,25,21,19,16,12,83,70,51,30.05,29.91,4,0,12,0.00
2013-2-17,21,13,11,17,8,4,85,77,68,30.19,29.90,6,3,12,0.01
2013-2-18,29,24,12,19,14,7,83,64,53,30.27,29.91,3,0,10,0.14
2013-2-19,42,32,25,36,26,17,89,78,69,29.91,29.53,6,3,11,0.16
2013-2-20,25,21,19,18,13,10,79,70,59,30.05,29.73,6,4,20,0.00
2013-2-21,22,18,13,15,12,6,80,76,71,30.42,30.02,5,2,14,0.00
2013-2-22,34,30,21,27,24,15,88,78,70,30.38,30.01,4,1,14,0.01
2013-2-23,38,33,30,32,27,24,81,78,75,29.90,29.85,3,1,8,0.06
2013-2-24,33,30,29,27,25,23,89,80,70,30.04,29.85,5,2,10,0.01
2013-2-25,36,32,25,29,26,22,86,78,70,30.22,30.04,2,0,8,0.01
2013-2-26,44,38,24,31,29,21,92,71,55,30.20,29.80,3,1,6,0.18
2013-2-27,35,33,32,34,32,30,95,95,93,29.80,29.55,1,0,7,0.67
2013-2-28,36,34,32,33,31,30,95,89,84,29.70,29.55,2,1,4,0.49
2013-3-1,32,28,23,30,22,18,93,82,77,29.91,29.70,4,2,9,0.06
2013-3-2,27,24,22,22,19,18,87,83,77,29.93,29.86,3,1,7,0.00
2013-3-3,24,22,21,20,17,15,87,80,70,29.89,29.84,4,2,8,0.01
2013-3-4,29,27,22,22,20,17,82,74,66,30.04,29.89,6,3,16,0.01
2013-3-5,32,28,22,24,21,18,85,78,69,30.09,29.97,3,0,6,0.07
2013-3-6,39,35,21,32,30,17,87,82,74,30.13,29.96,4,1,12,0.15
2013-3-7,36,33,30,32,28,25,92,81,69,30.27,30.12,4,1,12,0.00
2013-3-8,41,33,27,27,24,22,89,68,52,30.38,30.25,5,1,11,0.03
2013-3-9,48,37,27,32,28,22,93,72,46,30.41,30.21,2,0,11,0.00
2013-3-10,63,55,30,36,32,25,80,43,33,30.22,29.95,5,2,9,0.00
2013-3-11,57,53,50,44,35,31,69,50,43,29.96,29.63,7,3,16,0.00
2013-3-12,54,38,33,45,31,27,80,76,70,29.89,29.63,5,2,16,0.21
2013-3-13,39,32,22,31,24,15,89,72,59,29.93,29.80,6,3,16,0.02
2013-3-14,31,27,20,18,13,9,81,56,41,30.05,29.92,8,4,16,0.01
2013-3-15,38,33,26,32,28,14,90,81,61,30.04,29.70,6,3,15,0.07
2013-3-16,29,25,18,20,17,13,84,72,60,29.97,29.83,4,2,13,0.00
2013-3-17,30,25,15,23,14,6,88,66,50,30.34,29.97,4,2,8,0.04
2013-3-18,34,29,15,30,21,8,90,73,51,30.33,29.72,4,1,8,0.03
2013-3-19,36,30,25,31,24,19,90,76,65,29.81,29.68,8,3,16,0.24
2013-3-20,34,28,21,23,20,16,85,71,54,29.82,29.77,5,2,14,0.02
2013-3-21,29,26,21,23,20,14,84,77,62,29.81,29.70,3,1,15,0.01
2013-3-22,31,30,26,25,24,22,88,79,72,29.91,29.73,4,2,15,0.06
2013-3-23,38,34,29,27,24,21,83,67,58,29.99,29.90,6,2,15,0.02
2013-3-24,38,33,29,28,24,21,85,68,57,30.00,29.72,4,1,8,0.00
2013-3-25,39,35,31,29,26,24,82,71,62,29.72,29.59,5,2,11,0.00
2013-3-26,46,41,31,34,29,25,83,63,51,29.91,29.71,5,2,9,0.00
2013-3-27,45,37,32,36,32,25,93,80,60,30.04,29.91,4,2,15,0.03
2013-3-28,43,39,32,36,32,30,94,79,59,30.18,30.03,3,1,10,0.13
2013-3-29,51,44,34,37,32,27,84,65,43,30.18,30.09,4,2,10,0.00
2013-3-30,52,43,30,33,27,22,87,54,38,30.18,30.03,3,1,8,0.00
2013-3-31,54,44,30,42,38,23,89,83,50,30.03,29.59,5,2,13,0.04
2013-4-1,41,33,26,38,21,15,89,63,43,29.93,29.57,8,4,21,0.08
2013-4-2,33,29,23,27,21,16,88,73,52,30.09,29.92,6,3,16,0.04
2013-4-3,37,31,27,20,16,14,70,54,40,30.36,30.09,6,3,19,0.00
2013-4-4,40,34,26,23,21,17,74,60,47,30.34,29.89,2,0,19,0.00
2013-4-5,44,40,29,29,25,17,65,55,48,30.13,29.89,6,4,15,0.00
2013-4-6,48,39,22,24,21,17,83,50,33,30.31,30.02,4,1,10,0.00
2013-4-7,70,56,42,48,38,22,68,51,39,30.02,29.66,8,4,15,0.00
2013-4-8,51,46,41,42,38,33,90,75,59,30.08,29.73,5,1,15,0.04
2013-4-9,63,50,43,48,43,39,95,78,54,30.08,29.71,6,1,11,0.63
2013-4-10,46,40,38,44,40,37,97,96,95,30.04,29.84,5,2,10,0.50
2013-4-11,38,33,31,37,31,29,96,92,86,30.13,29.95,2,1,8,0.34
2013-4-12,51,45,40,49,42,34,98,89,77,29.76,29.51,5,2,13,0.59
2013-4-13,45,41,38,38,34,32,81,76,67,29.91,29.74,4,2,15,0.00
2013-4-14,43,38,32,33,28,26,82,69,55,30.17,29.91,4,1,15,0.00
2013-4-15,67,57,32,48,43,26,77,61,49,30.15,29.98,6,2,14,0.00
2013-4-16,64,55,44,58,50,35,94,82,67,30.20,29.92,6,2,16,0.13
2013-4-17,55,48,42,39,35,31,74,62,46,30.33,30.20,4,1,16,0.01
2013-4-18,76,67,42,61,55,33,77,67,56,30.22,29.66,9,6,15,0.00
2013-4-19,73,54,41,60,45,31,84,71,60,29.72,29.32,9,5,23,0.09
2013-4-20,42,37,31,32,25,21,79,62,53,30.39,29.71,7,4,20,0.04
2013-4-21,43,37,29,28,21,15,73,54,44,30.67,30.39,4,1,20,0.00
2013-4-22,59,49,29,34,28,15,62,46,33,30.60,30.40,6,3,12,0.00
2013-4-23,62,55,49,42,36,34,59,50,38,30.22,29.91,3,2,11,0.00
2013-4-24,66,54,38,55,46,34,89,75,54,29.97,29.53,8,3,12,0.09
2013-4-25,53,45,38,38,34,30,84,67,49,30.28,29.97,5,2,12,0.02
2013-4-26,55,48,36,39,31,26,93,54,38,30.44,30.28,4,2,11,0.01
2013-4-27,65,54,36,43,38,28,75,54,39,30.42,30.20,4,1,12,0.00
2013-4-28,66,56,52,48,47,44,83,73,50,30.15,30.00,4,2,9,0.09
2013-4-29,64,60,52,54,51,45,87,73,66,30.01,29.94,5,2,17,0.17
2013-4-30,74,66,55,58,54,51,86,64,52,30.17,30.00,5,2,11,0.00
2013-5-1,79,70,56,54,45,36,71,42,27,30.29,30.18,5,1,11,0.00
2013-5-2,76,66,54,47,42,36,61,43,25,30.37,30.22,5,1,9,0.00
2013-5-3,78,71,53,54,48,40,62,44,34,30.27,30.16,3,1,7,0.00
2013-5-4,75,68,53,51,45,40,62,45,34,30.22,30.09,5,1,11,0.00
2013-5-5,77,68,50,50,44,37,70,45,24,30.16,30.04,4,1,11,0.00
2013-5-10,66,61,59,62,59,57,96,93,86,29.75,29.68,2,1,10,0.48
2013-5-11,59,52,44,58,47,42,96,84,74,29.74,29.67,5,2,11,0.05
2013-5-12,50,43,37,42,35,32,92,74,57,29.89,29.68,6,3,13,0.07
2013-5-13,50,43,35,37,33,31,85,69,54,30.11,29.89,5,2,12,0.00
2013-5-14,59,50,34,39,35,29,94,59,35,30.14,29.93,3,1,12,0.00
2013-5-15,77,58,45,62,48,36,91,69,48,29.93,29.49,6,1,14,0.25
2013-5-16,72,69,56,50,49,45,65,48,43,29.74,29.68,2,1,14,0.00
2013-5-17,64,60,54,46,44,42,67,55,46,30.17,30.14,3,1,5,0.00
2013-5-19,80,74,68,64,62,60,74,66,56,30.08,29.96,3,2,10,0.00
2013-5-21,85,72,63,73,66,61,95,82,65,29.83,29.71,3,0,6,0.13
2013-5-22,89,78,63,73,68,62,98,72,51,29.75,29.58,4,0,9,0.10
2013-5-23,77,65,44,64,58,42,91,78,59,29.84,29.65,5,2,11,0.10
2013-5-24,52,45,38,42,39,37,95,80,59,30.18,29.84,5,2,11,0.20
2013-5-25,58,52,43,40,38,35,80,58,46,30.20,30.13,5,3,12,0.00
2013-5-26,62,57,47,40,37,35,64,49,37,30.18,30.14,5,2,10,0.00
2013-5-27,71,62,44,47,42,35,74,49,32,30.24,30.10,2,1,9,0.00
2013-5-28,62,58,50,60,55,42,97,91,74,30.13,29.89,3,0,7,0.80
2013-5-29,81,72,60,71,66,59,99,82,68,29.97,29.88,5,1,9,0.58
2013-5-30,88,80,65,71,66,61,89,65,44,30.06,29.97,2,1,7,0.00
2013-5-31,89,81,67,73,68,64,91,66,47,30.01,29.86,3,0,6,0.00
2013-6-1,88,78,68,73,68,63,97,76,55,29.90,29.70,6,1,9,0.49
2013-6-2,76,69,58,70,63,52,98,80,65,29.83,29.66,5,2,15,0.67
2013-6-3,64,58,50,52,46,42,83,65,46,29.98,29.83,3,2,10,0.00
2013-6-4,67,60,49,46,43,40,83,56,39,30.14,29.98,3,1,10,0.00
2013-6-5,66,59,48,53,47,40,76,64,49,30.19,30.05,4,1,8,0.00
2013-6-6,58,56,54,57,54,44,98,95,64,30.06,29.80,2,0,5,1.56
2013-6-7,61,58,55,60,57,54,99,97,92,29.82,29.76,1,0,4,0.10
2013-6-8,64,61,55,60,58,54,99,89,81,30.03,29.78,2,0,6,0.03
2013-6-9,76,68,57,61,57,53,88,69,56,30.16,30.03,2,0,5,0.00
2013-6-10,70,65,57,65,62,54,97,91,77,30.08,29.66,3,0,6,0.07
2013-6-11,68,64,59,64,61,54,98,88,79,29.80,29.62,3,1,11,0.18
2013-6-12,74,67,58,60,57,53,87,70,51,29.89,29.72,2,0,11,0.00
2013-6-13,65,59,55,59,57,53,97,92,79,29.74,29.46,5,2,10,1.44
2013-6-14,74,68,55,62,60,53,93,75,61,29.89,29.74,4,2,10,0.00
2013-6-15,74,66,54,58,53,49,94,65,44,30.01,29.90,3,1,9,0.00
2013-6-16,72,65,60,66,61,54,96,88,77,29.90,29.66,4,1,12,0.21
2013-6-17,79,70,59,68,61,56,90,75,60,29.88,29.78,2,0,12,0.07
2013-6-18,69,62,51,56,51,47,92,67,50,29.98,29.86,5,2,12,0.03
2013-6-19,64,56,47,52,47,43,89,72,59,30.16,29.98,2,1,9,0.00
2013-6-20,75,65,46,54,49,42,88,59,39,30.23,30.16,5,1,9,0.00
2013-6-21,82,71,51,64,56,47,87,60,41,30.24,30.13,3,1,7,0.00
2013-6-22,87,80,58,72,68,54,89,69,57,30.13,29.95,3,0,6,0.00
2013-6-23,89,82,71,75,70,65,83,68,56,30.00,29.93,4,1,8,0.00
2013-6-24,86,81,70,74,68,64,84,65,54,29.98,29.88,4,1,11,0.00
2013-6-25,82,77,71,72,68,64,88,75,64,29.85,29.73,3,1,9,0.01
2013-6-26,84,77,67,72,68,63,89,75,60,29.77,29.72,3,1,7,0.00
2013-6-27,80,73,66,74,69,63,95,89,77,29.76,29.59,4,0,10,0.26
2013-6-28,67,63,61,66,63,60,98,98,97,29.50,29.46,3,0,5,0.68
2013-6-29,77,70,61,69,66,60,99,87,69,29.65,29.49,3,0,5,0.78
2013-6-30,77,71,63,69,65,61,93,79,71,29.88,29.65,4,1,6,0.00
2013-7-1,67,64,60,64,62,59,97,93,86,30.01,29.88,4,2,9,0.36
2013-7-3,84,76,68,76,72,67,99,90,73,30.10,30.05,3,1,6,2.45
2013-7-4,87,79,69,76,73,68,100,83,60,30.13,30.04,3,1,5,0.02
2013-7-5,86,82,77,75,74,72,90,78,68,30.07,30.01,2,1,5,0.15
2013-7-6,80,75,71,72,70,70,95,86,74,30.10,29.98,1,0,4,0.00
2013-7-7,82,76,71,74,69,66,96,79,70,30.00,29.88,2,1,8,0.02
2013-7-8,86,77,70,75,71,67,98,81,63,29.99,29.93,2,0,7,0.07
2013-7-9,81,76,70,74,72,69,97,87,76,29.99,29.85,4,0,5,0.06
2013-7-10,87,79,72,78,72,65,97,80,70,29.77,29.63,3,1,8,0.00
2013-7-11,78,71,63,65,61,58,86,73,61,29.92,29.88,2,1,8,0.00
2013-7-12,75,70,61,67,63,60,98,80,67,30.14,30.08,3,0,7,0.00
2013-7-13,79,76,71,71,70,68,92,82,72,30.20,30.16,2,0,6,0.00
2013-7-14,88,80,70,76,72,68,93,77,63,30.25,30.18,3,1,6,0.00
2013-7-15,89,82,70,77,72,66,87,72,51,30.24,30.17,3,1,6,0.00
2013-7-16,90,84,70,76,72,66,90,68,48,30.23,30.15,3,0,8,0.00
2013-7-17,93,85,71,80,76,68,96,75,54,30.17,30.01,4,1,13,0.01
2013-7-18,91,85,76,81,77,72,98,77,67,30.04,29.88,3,1,13,0.00
2013-7-19,91,82,68,79,73,65,95,74,54,29.82,29.65,8,2,22,0.48
2013-7-20,81,73,68,71,67,62,95,82,56,29.84,29.69,4,1,22,0.63
2013-7-21,75,70,60,65,61,57,89,72,62,29.96,29.84,3,1,8,0.00
2013-7-22,81,72,60,69,64,57,97,78,60,29.96,29.73,3,0,7,0.01
2013-7-23,84,75,66,72,67,60,98,78,54,29.73,29.55,4,1,10,0.06
2013-7-24,67,61,52,55,51,49,90,70,56,30.01,29.79,4,1,11,0.00
2013-7-25,73,65,50,59,53,49,97,67,46,30.10,30.01,4,1,11,0.01
2013-7-26,76,70,57,62,56,52,86,63,49,30.08,29.97,3,1,6,0.00
2013-7-27,78,72,56,67,64,52,95,77,63,29.97,29.77,4,1,9,0.05
2013-7-28,76,68,59,67,62,55,98,82,65,29.93,29.77,2,0,9,0.09
2013-7-29,73,66,57,61,57,55,91,75,58,30.09,29.97,3,1,7,0.00
2013-7-30,76,70,58,64,60,55,91,71,56,30.16,30.09,2,1,7,0.00
2013-7-31,81,71,56,66,62,56,97,75,54,30.11,29.90,3,0,6,0.00
2013-8-1,78,72,64,71,65,60,98,81,64,29.81,29.73,3,1,7,0.39
2013-8-2,77,70,61,66,63,58,98,80,53,29.85,29.79,3,1,8,0.02
2013-8-3,76,71,64,63,59,55,90,68,51,29.88,29.85,3,1,13,0.17
2013-8-4,72,66,56,58,55,51,83,67,57,30.02,29.96,4,2,11,0.00
2013-8-5,75,68,55,60,56,52,92,66,47,30.08,29.98,2,0,7,0.00
2013-8-6,79,72,63,63,59,55,88,65,47,30.03,29.95,3,0,7,0.00
2013-8-7,81,76,69,70,67,64,88,74,66,29.92,29.82,5,2,12,0.00
2013-8-8,84,77,70,74,71,68,95,82,69,29.90,29.87,5,1,9,0.27
2013-8-9,79,70,64,70,65,60,98,84,63,29.88,29.81,2,0,9,0.72
2013-8-10,72,67,55,60,55,51,90,67,51,30.05,30.01,4,1,8,0.00
2013-8-11,76,69,54,61,57,51,94,67,49,30.10,30.00,2,0,7,0.00
2013-8-12,73,68,60,64,61,57,92,79,66,29.99,29.87,1,0,2,0.00
2013-8-13,73,67,58,68,60,50,99,79,61,29.83,29.70,4,2,10,0.58
2013-8-14,68,62,52,57,52,48,85,70,52,30.05,29.91,5,2,14,0.02
2013-8-15,75,65,49,59,53,46,90,67,48,30.10,30.03,4,1,13,0.00
2013-8-16,77,68,53,60,57,52,96,70,51,30.17,30.12,1,0,7,0.00
2013-8-17,80,71,55,64,59,53,98,68,46,30.26,30.17,3,0,6,0.00
2013-8-18,80,75,63,64,62,58,88,64,50,30.22,30.10,2,0,5,0.00
2013-8-19,82,74,61,69,64,59,98,71,52,30.07,29.98,2,0,5,0.00
2013-8-20,84,74,58,66,62,57,97,70,49,30.09,30.04,2,0,12,0.00
2013-8-21,86,77,60,70,65,59,96,69,49,30.12,29.97,2,0,6,0.00
2013-8-22,84,81,75,73,71,68,81,72,66,29.93,29.85,4,1,8,0.00
2013-8-23,74,68,55,62,59,54,97,73,59,30.09,30.02,3,1,6,0.00
2013-8-24,76,68,52,61,53,49,97,61,39,30.32,30.27,3,1,7,0.00
2013-8-25,84,74,52,64,59,49,97,60,40,30.30,30.08,2,0,9,0.02
2013-8-26,78,71,68,72,68,66,96,93,79,30.00,29.87,4,1,12,0.66
2013-8-27,71,70,70,70,70,70,99,99,99,29.89,29.89,1,0,1,0.00
2013-8-28,83,79,72,75,73,72,98,84,73,29.83,29.80,3,1,4,0.13
2013-8-29,82,73,65,72,68,63,99,83,68,29.99,29.95,2,0,8,0.00
2013-8-30,83,76,63,73,69,63,99,82,67,29.92,29.70,1,0,4,0.01
2013-8-31,80,75,71,74,71,68,91,85,77,29.75,29.70,4,1,8,0.02
2013-9-1,80,74,69,73,70,68,99,87,74,29.80,29.70,2,0,5,0.06
2013-9-2,80,70,63,74,66,59,99,87,66,29.75,29.62,3,0,14,0.01
2013-9-3,67,64,58,60,58,55,91,82,74,29.90,29.80,4,1,10,0.00
2013-9-4,78,69,55,63,60,54,98,76,47,29.96,29.90,4,1,15,0.18
2013-9-5,66,63,53,61,52,42,95,68,47,30.13,29.93,3,2,8,0.00
2013-9-6,71,62,47,52,49,46,96,64,45,30.26,30.07,2,0,6,0.00
2013-9-7,64,61,52,61,57,49,95,87,79,30.07,29.83,1,0,5,0.06
2013-9-8,62,52,46,59,48,44,95,86,69,30.08,29.83,3,0,15,0.05
2013-9-9,75,66,46,64,57,43,92,73,58,30.12,29.92,3,1,8,0.00
2013-9-10,90,82,65,79,74,61,97,77,64,29.94,29.88,3,1,11,0.33
2013-9-11,92,83,72,78,74,66,94,73,58,29.97,29.83,4,1,6,0.00
2013-9-12,72,67,59,68,64,58,96,91,81,29.86,29.67,2,0,6,0.19
2013-9-13,59,52,50,57,50,48,96,91,84,29.98,29.70,4,1,8,0.27
2013-9-14,51,49,48,45,44,44,86,84,79,30.09,30.06,1,0,3,0.00
2013-9-15,68,62,50,56,53,46,85,72,63,30.14,30.03,2,0,7,0.00
2013-9-16,54,49,42,53,46,40,97,90,77,30.35,30.11,5,1,9,0.06
2013-9-17,64,54,43,47,44,41,97,72,48,30.48,30.27,1,0,6,0.00
2013-9-18,64,54,50,50,48,46,91,79,56,30.23,30.08,1,0,2,0.00
2013-9-19,77,70,57,61,58,54,92,68,51,30.10,29.98,3,0,5,0.00
2013-9-22,53,51,49,44,43,42,81,75,69,30.00,29.89,3,0,12,0.00
2013-9-23,59,55,48,46,43,41,86,65,56,30.13,29.99,3,2,12,0.00
2013-9-24,64,53,39,53,44,38,98,73,49,30.13,29.98,2,0,8,0.00
2013-9-25,69,59,42,57,49,40,97,72,52,30.00,29.92,2,0,8,0.00
2013-9-26,69,60,44,58,53,41,97,78,63,30.13,29.98,3,1,6,0.00
2013-9-27,66,55,47,58,52,45,97,88,71,30.24,30.13,2,0,5,0.00
2013-9-28,73,64,51,59,56,48,98,75,57,30.28,30.15,1,0,5,0.00
2013-9-29,74,66,56,60,55,52,94,70,51,30.09,29.95,3,1,11,0.00
2013-9-30,76,66,59,63,58,52,91,78,61,29.98,29.92,2,0,8,0.00
2013-10-1,75,67,57,63,58,55,96,75,52,29.99,29.87,2,0,6,0.00
2013-10-2,71,62,57,64,58,54,92,85,76,29.94,29.87,2,0,15,0.00
2013-10-3,71,63,46,58,54,46,98,73,45,30.11,29.99,1,0,1,0.02
2013-10-4,66,63,60,65,61,58,98,95,91,30.03,29.96,2,0,5,0.37
2013-10-5,62,59,58,59,57,55,96,91,86,30.07,30.00,2,0,6,0.08
2013-10-6,81,72,58,75,69,57,100,90,74,30.00,29.69,3,0,9,0.58
2013-10-7,73,55,48,67,52,46,96,88,74,30.00,29.62,5,1,12,0.71
2013-10-8,58,53,47,51,49,45,97,86,71,30.27,30.01,1,0,4,0.01
2013-10-9,67,56,44,51,47,41,91,73,51,30.39,30.26,2,0,7,0.00
2013-10-10,66,54,41,48,45,40,96,73,45,30.26,30.14,2,0,3,0.00
2013-10-11,68,57,42,56,49,39,98,76,54,30.15,30.09,3,1,7,0.00
2013-10-12,75,62,44,55,47,42,97,61,38,30.18,30.10,1,0,4,0.01
2013-10-13,69,64,49,61,59,43,95,84,69,30.24,30.17,3,1,8,0.06
2013-10-14,62,53,44,52,46,41,91,80,66,30.28,30.23,1,0,7,0.21
2013-10-15,67,60,46,58,55,45,98,82,70,30.21,29.93,4,1,8,0.00
2013-10-16,64,60,56,58,56,53,93,87,82,29.93,29.72,4,1,11,0.26
2013-10-17,62,57,51,53,51,49,95,83,66,29.85,29.63,1,0,5,0.41
2013-10-18,60,53,47,50,43,40,95,72,52,29.88,29.69,4,1,15,0.02
2013-10-19,62,54,42,48,45,40,91,73,54,29.87,29.60,4,1,9,0.09
2013-10-20,53,48,42,43,42,40,91,81,64,29.96,29.87,1,0,5,0.03
2013-10-21,66,58,48,48,42,39,83,56,41,29.94,29.76,4,1,12,0.00
2013-10-22,52,43,35,46,33,29,89,69,52,29.83,29.76,5,1,17,0.22
2013-10-23,44,38,33,39,34,30,92,86,77,29.81,29.69,4,0,17,0.05
2013-10-24,48,38,30,36,32,28,92,81,55,30.00,29.77,5,1,18,0.22
2013-10-25,50,42,32,41,36,31,96,80,60,30.17,30.00,4,1,9,0.02
2013-10-26,45,43,38,36,33,30,91,68,57,30.11,29.77,3,1,12,0.02
2013-10-27,47,43,36,38,35,31,90,75,64,30.05,29.94,2,0,5,0.00
2013-10-28,48,40,26,40,29,22,86,67,42,30.38,30.03,4,1,10,0.00
2013-10-29,46,33,22,32,26,19,93,76,51,30.47,30.30,2,0,4,0.00
2013-10-30,56,46,37,42,39,31,94,78,56,30.29,30.08,1,0,4,0.05
2013-10-31,66,60,38,60,55,36,97,86,73,30.08,29.35,5,2,15,0.50
2013-11-1,60,55,47,57,47,44,92,74,62,29.64,29.30,8,4,24,0.26
2013-11-2,48,41,36,45,39,33,94,92,88,29.98,29.62,4,1,12,0.28
2013-11-3,38,32,26,33,23,20,88,71,57,30.52,29.98,4,1,12,0.00
2013-11-4,41,35,21,28,23,18,91,61,43,30.65,30.43,3,0,7,0.00
2013-11-5,56,49,37,38,34,20,63,55,49,30.46,30.31,4,1,12,0.00
2013-11-6,65,60,49,54,48,41,92,68,58,30.14,29.76,5,2,11,0.17
2013-11-7,57,41,37,55,33,30,93,74,64,29.96,29.77,3,1,12,0.19
2013-11-8,42,38,36,33,29,26,85,71,55,30.21,29.94,6,2,13,0.02
2013-11-9,43,39,35,35,32,29,88,78,65,30.20,29.98,4,1,12,0.02
2013-11-10,40,39,38,34,32,31,81,75,70,30.13,30.01,7,4,18,0.03
2013-11-11,44,37,28,35,31,26,92,78,60,30.14,29.90,3,1,16,0.01
2013-11-12,32,28,23,26,21,18,92,75,68,30.38,30.09,4,1,9,0.00
2013-11-13,37,32,16,27,23,12,89,69,54,30.42,30.06,4,1,8,0.00
2013-11-14,48,41,34,28,21,18,64,47,33,30.09,29.98,3,1,9,0.00
2013-11-15,50,46,41,30,27,24,52,47,43,30.10,30.03,2,1,7,0.00
2013-11-16,58,50,37,41,37,27,73,61,50,30.23,30.02,3,1,7,0.00
2013-11-17,60,58,51,54,51,41,87,78,68,30.01,29.32,8,5,14,0.06
2013-11-18,53,44,36,48,33,26,86,67,60,29.86,29.32,7,4,19,0.00
2013-11-19,36,32,24,27,23,18,81,70,61,30.44,29.86,4,1,19,0.00
2013-11-20,37,30,18,25,20,15,90,68,51,30.60,30.44,2,0,14,0.00
2013-11-21,44,40,28,35,30,19,86,68,52,30.45,30.25,4,1,10,0.03
2013-11-22,47,42,32,46,40,26,97,92,78,30.14,29.96,6,1,23,0.29
2013-11-23,35,24,18,27,18,9,88,76,60,30.16,29.98,6,3,23,0.00
2013-11-24,22,20,17,16,13,10,84,74,61,30.41,30.16,5,2,15,0.00
2013-11-25,34,30,20,22,16,11,82,55,42,30.38,30.10,2,1,8,0.01
2013-11-26,35,33,32,30,29,26,93,84,72,30.13,29.80,2,0,5,0.01
2013-11-27,33,27,21,32,23,17,95,85,77,29.88,29.63,4,3,13,0.01
2013-11-28,27,22,16,17,15,11,85,74,63,30.43,30.25,2,0,7,0.07
2013-11-29,28,18,7,20,11,4,92,73,58,30.75,30.43,2,0,5,0.07
2013-11-30,31,25,6,23,18,2,87,73,62,30.73,30.19,4,1,8,0.01
2013-12-1,37,35,30,32,30,22,93,82,70,30.19,29.95,2,0,8,0.28
2013-12-2,38,36,31,33,32,28,90,85,80,29.90,29.84,0,0,1,0.10
2013-12-3,39,33,26,31,26,22,94,78,64,30.00,29.89,1,0,2,0.00
2013-12-4,48,40,31,39,35,28,92,84,72,30.02,29.88,1,0,2,0.01
2013-12-5,60,51,39,53,44,33,91,78,64,29.98,29.70,5,2,14,0.02
2013-12-6,39,33,30,34,25,23,84,74,70,30.23,29.98,2,1,12,0.14
2013-12-7,31,27,23,21,17,13,79,65,56,30.55,30.38,4,2,9,0.00
2013-12-8,28,25,20,22,16,13,85,68,54,30.58,30.21,3,0,8,0.00
2013-12-9,38,35,33,34,29,24,86,78,70,29.95,29.85,4,3,11,0.09
2013-12-10,33,22,17,25,14,9,88,71,59,30.04,29.90,4,2,21,0.00
2013-12-11,22,18,10,18,12,5,86,79,62,30.27,30.04,3,1,11,0.00
2013-12-12,19,15,10,13,9,4,85,76,62,30.33,30.03,5,1,11,0.00
2013-12-13,22,18,10,18,13,3,86,80,67,30.40,30.02,4,2,11,0.00
2013-12-14,23,12,8,20,7,3,89,81,74,30.46,29.75,1,0,7,0.00
2013-12-15,24,21,18,21,16,10,90,81,69,29.84,29.69,5,2,14,0.00
2013-12-16,20,11,-2,13,5,-7,83,77,66,30.19,29.84,4,1,14,0.02
2013-12-17,26,14,-6,24,11,-10,89,84,79,30.16,29.91,3,0,5,0.00
2013-12-18,31,29,24,23,21,20,88,72,66,30.06,29.94,4,1,8,0.01
2013-12-19,41,38,28,32,30,20,87,74,63,30.03,29.89,5,1,10,0.33
2013-12-20,41,39,35,40,37,34,96,92,89,29.85,29.76,1,0,3,0.36
2013-12-21,39,35,31,38,34,30,96,96,95,29.88,29.73,4,1,9,0.63
2013-12-22,43,37,31,42,36,30,98,95,88,29.95,29.61,3,1,8,0.50
2013-12-23,40,32,23,37,28,18,90,87,76,30.24,29.93,4,1,9,0.01
2013-12-24,23,17,10,20,13,7,90,85,81,30.49,30.22,4,2,8,0.00
2013-12-25,24,16,0,16,10,-3,87,76,68,30.54,30.22,1,0,8,0.00
2013-12-26,31,27,21,27,21,14,90,78,68,30.27,30.06,4,1,7,0.03
2013-12-27,32,29,20,27,24,13,90,83,73,30.27,30.07,3,1,10,0.02
2013-12-28,42,36,29,35,31,25,91,82,74,30.08,29.92,3,1,17,0.09
2013-12-29,44,38,27,38,34,24,94,85,59,29.91,29.59,5,1,17,0.08
2013-12-30,27,16,11,24,11,6,88,83,80,30.22,29.74,4,1,11,0.00
2013-12-31,23,18,13,19,9,3,84,70,62,30.23,29.97,6,3,11,0.00
2014-1-1,21,17,14,11,10,7,87,75,62,30.41,30.23,2,0,12,0.00
2014-1-2,14,9,3,11,6,0,87,86,85,30.30,29.99,7,3,17,0.00